Location: Lafig�re
(44.4503°N, 4.0357°E)
Time: 15:24:21
(UTC+00:00)

Lacrosse 5 rocket - Pass Details

Date: 24 September 2020
Orbit: 460 x 636 km, 57.0° (Epoch: 25 October)

Event Time Altitude Azimuth Distance (km) Brightness Sun altitude
Rises 20:52:14 0° 313° (NW) 2,849 6.0 -33.4°
Reaches altitude 10° 20:54:36 10° 321° (NW) 1,967 4.9 -33.8°
Enters shadow 20:56:16 21° 333° (NNW) 1,405 3.9 -34.0°
